Volver al catálogo

FENGYUN 1C DEB

ActivoPO
NORAD 37918·DEBRIS·🇨🇳 China

Lanzado May 10, 1999 desde Taiyuan Satellite Launch Center

Loading…

Próximos Pases (próximas 24 horas)

TLE

ActualizadoSource: Space-Track

Época: Sep 12, 2026, 20:29 UTC

1 37918U 99025ENT 26255.85373620  .00000819  00000-0  29787-3 0  9991
2 37918  99.0568 223.1759 0054189 200.7876 159.1105 14.35275149 74737

Sigue FENGYUN 1C DEB en tiempo real con AllMySat

Download on the App Store